When you browse on this site, cookies collect data to enhance your experience and personalize the content and advertising you see.
Visit our Privacy Policy to learn more. By continuing to use the site, you agree to this use of cookies and data.
  • en Suisse
  • Liste des pays
  • À 7 jours
  • Température de l'eau
  • Carte satellitaire
  • Carte météo
  • Widgets météo
  • user-avatar
    Se connecter

    Météo par heure à Enilchek

    Ce jour, 27 Juin, Jeudi

    Heure Température Précipitation Vent Pression Humidité
    00:00 +5°C° 0 mm 2 m/s 513 mmHg 78%
    01:00 +5°C° 0 mm 1 m/s 513 mmHg 78%
    02:00 +5°C° 0 mm 1 m/s 512 mmHg 77%
    03:00 +5°C° 0 mm 1 m/s 512 mmHg 76%
    04:00 +5°C° 0 mm 1 m/s 512 mmHg 74%
    05:00 +5°C° 0 mm 1 m/s 513 mmHg 72%
    06:00 +6°C° 0 mm 1 m/s 513 mmHg 67%
    07:00 +6°C° 0 mm 0 m/s 514 mmHg 62%
    08:00 +7°C° 0 mm 0 m/s 514 mmHg 57%
    09:00 +8°C° 0 mm 0 m/s 515 mmHg 53%
    10:00 +10°C° 0 mm 1 m/s 515 mmHg 49%
    11:00 +11°C° 0 mm 1 m/s 515 mmHg 45%
    12:00 +12°C° 0.3 mm 1 m/s 515 mmHg 44%
    13:00 +12°C° 0.3 mm 1 m/s 515 mmHg 43%
    14:00 +13°C° 0.3 mm 2 m/s 516 mmHg 42%
    15:00 +13°C° 0.5 mm 2 m/s 515 mmHg 45%
    16:00 +12°C° 0.5 mm 2 m/s 515 mmHg 47%
    17:00 +11°C° 0.5 mm 3 m/s 515 mmHg 50%
    18:00 +10°C° 0.1 mm 2 m/s 515 mmHg 53%
    19:00 +9°C° 0.1 mm 2 m/s 514 mmHg 57%
    20:00 +8°C° 0.1 mm 2 m/s 514 mmHg 60%
    21:00 +8°C° 0.1 mm 2 m/s 514 mmHg 62%
    22:00 +9°C° 0.1 mm 1 m/s 514 mmHg 64%
    23:00 +8°C° 0.1 mm 1 m/s 513 mmHg 66%

    Demain, 28 Juin, Vendredi

    Heure Température Précipitation Vent Pression Humidité
    00:00 +8°C° 0 mm 1 m/s 513 mmHg 67%
    01:00 +7°C° 0 mm 1 m/s 513 mmHg 68%
    02:00 +7°C° 0 mm 1 m/s 512 mmHg 69%
    03:00 +7°C° 0 mm 1 m/s 512 mmHg 69%
    04:00 +7°C° 0 mm 1 m/s 512 mmHg 68%
    05:00 +7°C° 0 mm 1 m/s 512 mmHg 68%
    06:00 +8°C° 0 mm 1 m/s 513 mmHg 63%
    07:00 +9°C° 0 mm 1 m/s 514 mmHg 59%
    08:00 +9°C° 0 mm 0 m/s 515 mmHg 55%
    09:00 +10°C° 0.3 mm 0 m/s 515 mmHg 53%
    10:00 +12°C° 0.3 mm 1 m/s 515 mmHg 51%
    11:00 +12°C° 0.3 mm 1 m/s 515 mmHg 50%
    12:00 +12°C° 0.9 mm 1 m/s 515 mmHg 51%
    13:00 +13°C° 0.9 mm 2 m/s 515 mmHg 51%
    14:00 +13°C° 0.9 mm 2 m/s 515 mmHg 52%
    15:00 +12°C° 1.1 mm 2 m/s 515 mmHg 54%
    16:00 +12°C° 1.1 mm 2 m/s 515 mmHg 56%
    17:00 +12°C° 1.1 mm 2 m/s 515 mmHg 58%
    18:00 +10°C° 1.4 mm 2 m/s 514 mmHg 68%
    19:00 +8°C° 1.4 mm 2 m/s 514 mmHg 77%
    20:00 +8°C° 1.4 mm 1 m/s 513 mmHg 86%
    21:00 +7°C° 1.5 mm 1 m/s 513 mmHg 87%
    22:00 +7°C° 1.5 mm 1 m/s 513 mmHg 88%
    23:00 +7°C° 1.5 mm 1 m/s 513 mmHg 89%

    Après-demain, 29 Juin, Samedi

    Heure Température Précipitation Vent Pression Humidité
    00:00 +7°C° 0.1 mm 1 m/s 513 mmHg 88%
    01:00 +7°C° 0.1 mm 1 m/s 513 mmHg 87%
    02:00 +7°C° 0.1 mm 1 m/s 513 mmHg 86%
    03:00 +7°C° 0 mm 1 m/s 513 mmHg 85%
    04:00 +7°C° 0 mm 1 m/s 513 mmHg 84%
    05:00 +7°C° 0 mm 1 m/s 513 mmHg 82%
    06:00 +8°C° 0 mm 1 m/s 513 mmHg 78%
    07:00 +9°C° 0 mm 1 m/s 514 mmHg 73%
    08:00 +9°C° 0 mm 1 m/s 515 mmHg 68%
    09:00 +10°C° 0.3 mm 1 m/s 515 mmHg 64%
    10:00 +10°C° 0.3 mm 0 m/s 515 mmHg 60%
    11:00 +11°C° 0.3 mm 0 m/s 516 mmHg 56%
    12:00 +12°C° 0.7 mm 1 m/s 516 mmHg 54%
    13:00 +13°C° 0.7 mm 1 m/s 516 mmHg 53%
    14:00 +13°C° 0.7 mm 1 m/s 516 mmHg 51%
    15:00 +13°C° 0.8 mm 1 m/s 516 mmHg 53%
    16:00 +13°C° 0.8 mm 2 m/s 515 mmHg 55%
    17:00 +12°C° 0.8 mm 2 m/s 515 mmHg 57%
    18:00 +10°C° 0.5 mm 2 m/s 515 mmHg 63%
    19:00 +9°C° 0.5 mm 2 m/s 514 mmHg 70%
    20:00 +8°C° 0.5 mm 2 m/s 514 mmHg 76%
    21:00 +8°C° 0 mm 2 m/s 514 mmHg 76%
    22:00 +9°C° 0 mm 1 m/s 514 mmHg 76%
    23:00 +8°C° 0 mm 1 m/s 514 mmHg 76%

    30 Juin, Dimanche

    Heure Température Précipitation Vent Pression Humidité
    00:00 +8°C° 0 mm 1 m/s 514 mmHg 76%
    01:00 +8°C° 0 mm 1 m/s 513 mmHg 76%
    02:00 +8°C° 0 mm 1 m/s 513 mmHg 76%
    03:00 +8°C° 0 mm 1 m/s 513 mmHg 76%
    04:00 +8°C° 0 mm 1 m/s 513 mmHg 75%
    05:00 +8°C° 0 mm 1 m/s 513 mmHg 75%
    06:00 +9°C° 0 mm 1 m/s 514 mmHg 68%
    07:00 +10°C° 0 mm 1 m/s 515 mmHg 60%
    08:00 +11°C° 0 mm 1 m/s 515 mmHg 53%
    09:00 +12°C° 0 mm 1 m/s 516 mmHg 48%
    10:00 +14°C° 0 mm 1 m/s 516 mmHg 44%
    11:00 +15°C° 0 mm 1 m/s 516 mmHg 39%
    12:00 +15°C° 0.1 mm 1 m/s 517 mmHg 38%
    13:00 +16°C° 0.1 mm 1 m/s 517 mmHg 38%
    14:00 +16°C° 0.1 mm 1 m/s 517 mmHg 37%
    15:00 +15°C° 0.1 mm 2 m/s 516 mmHg 41%
    16:00 +15°C° 0.1 mm 2 m/s 516 mmHg 45%
    17:00 +13°C° 0.1 mm 3 m/s 516 mmHg 49%
    18:00 +13°C° 0.2 mm 2 m/s 515 mmHg 54%
    19:00 +12°C° 0.2 mm 2 m/s 515 mmHg 60%
    20:00 +11°C° 0.2 mm 1 m/s 515 mmHg 65%
    21:00 +11°C° 0.2 mm 1 m/s 514 mmHg 68%
    22:00 +9°C° 0.2 mm 2 m/s 514 mmHg 71%
    23:00 +9°C° 0.2 mm 2 m/s 514 mmHg 74%

    1 Juillet, Lundi

    Heure Température Précipitation Vent Pression Humidité
    00:00 +9°C° 0.1 mm 2 m/s 514 mmHg 75%
    01:00 +8°C° 0.1 mm 2 m/s 513 mmHg 77%
    02:00 +8°C° 0.1 mm 2 m/s 513 mmHg 78%
    03:00 +9°C° 0 mm 1 m/s 513 mmHg 78%
    04:00 +9°C° 0 mm 1 m/s 513 mmHg 78%
    05:00 +9°C° 0 mm 1 m/s 513 mmHg 78%
    06:00 +10°C° 0 mm 1 m/s 514 mmHg 71%
    07:00 +11°C° 0 mm 1 m/s 515 mmHg 65%
    08:00 +12°C° 0 mm 1 m/s 515 mmHg 59%
    09:00 +13°C° 0.2 mm 1 m/s 516 mmHg 54%
    10:00 +14°C° 0.2 mm 1 m/s 516 mmHg 49%
    11:00 +15°C° 0.2 mm 1 m/s 517 mmHg 44%
    12:00 +16°C° 0.2 mm 2 m/s 517 mmHg 42%
    13:00 +16°C° 0.2 mm 2 m/s 517 mmHg 41%
    14:00 +17°C° 0.2 mm 2 m/s 517 mmHg 40%
    15:00 +16°C° 0.3 mm 2 m/s 517 mmHg 42%
    16:00 +16°C° 0.3 mm 2 m/s 517 mmHg 44%
    17:00 +14°C° 0.3 mm 3 m/s 517 mmHg 46%
    18:00 +15°C° 0.1 mm 2 m/s 517 mmHg 50%
    19:00 +14°C° 0.1 mm 2 m/s 516 mmHg 54%
    20:00 +13°C° 0.1 mm 2 m/s 516 mmHg 57%
    21:00 +12°C° 0 mm 2 m/s 516 mmHg 60%
    22:00 +12°C° 0 mm 2 m/s 516 mmHg 62%
    23:00 +10°C° 0 mm 2 m/s 515 mmHg 64%

    2 Juillet, Mardi

    Heure Température Précipitation Vent Pression Humidité
    00:00 +9°C° 0 mm 2 m/s 515 mmHg 64%
    01:00 +9°C° 0 mm 2 m/s 515 mmHg 64%
    02:00 +8°C° 0 mm 2 m/s 514 mmHg 65%
    03:00 +8°C° 0 mm 2 m/s 514 mmHg 64%
    04:00 +8°C° 0 mm 2 m/s 514 mmHg 64%
    05:00 +8°C° 0 mm 2 m/s 514 mmHg 64%
    06:00 +9°C° 0 mm 2 m/s 515 mmHg 56%
    07:00 +12°C° 0 mm 1 m/s 516 mmHg 48%
    08:00 +13°C° 0 mm 1 m/s 517 mmHg 39%
    09:00 +14°C° 0 mm 1 m/s 517 mmHg 34%
    10:00 +15°C° 0 mm 1 m/s 518 mmHg 29%
    11:00 +18°C° 0 mm 1 m/s 518 mmHg 24%
    12:00 +17°C° 0 mm 2 m/s 519 mmHg 24%
    13:00 +18°C° 0 mm 2 m/s 519 mmHg 23%
    14:00 +19°C° 0 mm 2 m/s 519 mmHg 22%
    15:00 +19°C° 0 mm 3 m/s 519 mmHg 23%
    16:00 +18°C° 0 mm 3 m/s 519 mmHg 24%
    17:00 +18°C° 0 mm 3 m/s 519 mmHg 25%
    18:00 +17°C° 0 mm 3 m/s 518 mmHg 31%
    19:00 +16°C° 0 mm 3 m/s 518 mmHg 37%
    20:00 +14°C° 0 mm 2 m/s 517 mmHg 43%
    21:00 +14°C° 0 mm 2 m/s 517 mmHg 46%
    22:00 +13°C° 0 mm 2 m/s 517 mmHg 48%
    23:00 +12°C° 0 mm 2 m/s 516 mmHg 51%
    Voir plus